Location: Amsterdam
(30.7274°N, 84.4357°W)
Time: 16:08:42
(UTC+00:00)

Injun/Solrad 3 - Pass Details

Date: 24 February 2026
Orbit: 871 x 985 km, 66.8° (Epoch: 11 March)

Event Time Altitude Azimuth Distance (km) Brightness Sun altitude
Rises 13:41:19 0° 168° (SSE) 3,443 11.4 18.1°
Reaches altitude 10° 13:44:20 10° 153° (SSE) 2,508 11.1 18.7°
Maximum altitude 13:48:36 22° 105° (ESE) 1,835 12.1 19.5°
Drops below altitude 10° 13:52:53 10° 58° (ENE) 2,535 10.7 20.3°
Sets 13:55:57 0° 43° (NE) 3,491 11.1 20.9°
